Home > Weather > Daly City > Past weeks

Flag for USA Weather for the Past 2 Weeks in Daly City, California, USA

Now
54 °F

Low clouds.


Feels Like: 51 °F
Forecast: 54 / 59 °F
Wind: 12 mph from West

Location: San Francisco International Airport

Current Time: May 6, 2016 at 10:50:36 AM

Latest Report: May 6, 2016 at 9:56 AM


Visibility: 10 mi

Pressure: 29.88 "Hg

Humidity: 100%

Dew Point: 54 °F

Location of Daly CityLocation

Historic Weather in Daly City — Graph

°F

Daly City Temperature Yesterday

Maximum temperature yesterday: 65 °F (at 1:56 PM)
Minimum temperature yesterday: 56 °F (at 4:56 AM)
Average temperature yesterday: 60 °F

High & Low Weather Summary for the Past Weeks

 TemperatureHumidityPressure
High80 °F (May 1, 2:56 PM)100% (May 3, 1:56 AM)30.22 "Hg (May 3, 1:56 AM)
Low47 °F (Apr 25, 5:56 AM)28% (May 1, 2:56 PM)29.80 "Hg (May 1, 4:56 AM)
Average57 °F72%29.96 "Hg
* Reported Apr 21 8:56 AM — May 6 8:56 AM, Daly City, Weather by CustomWeather, © 2016

Note: Actual official high and low records may vary slightly from our data, if they occured in-between our weather recording intervals... More about our weather records

Advertising

Daly City Weather History for the Previous 24 Hours

Scroll right to see more
 ConditionsComfort  
Time TempWeatherWind HumidityBarometerVisibility
8:56 AM
Fri, May 6
57 °FMostly cloudy.13 mph87%29.85 "Hg10 mi
7:56 AM55 °FLow clouds.6 mph96%29.85 "Hg10 mi
6:56 AM54 °FLow clouds.6 mph100%29.85 "Hg8 mi
5:56 AM54 °FMostly cloudy.13 mph83%29.85 "Hg10 mi
4:56 AM54 °FOvercast.13 mph100%29.84 "Hg10 mi
3:56 AM54 °FLow clouds.12 mph100%29.85 "Hg10 mi
2:56 AM55 °FLow clouds.6 mph90%29.86 "Hg10 mi
1:56 AM54 °FPassing clouds.12 mph97%29.87 "Hg10 mi
12:56 AM54 °FPassing clouds.18 mph100%29.88 "Hg10 mi
11:56 PM
Thu, May 5
56 °FPassing clouds.16 mph100%29.87 "Hg10 mi
10:56 PM57 °FPassing clouds.10 mph93%29.87 "Hg10 mi
9:56 PM57 °FPassing clouds.10 mph93%29.87 "Hg10 mi
8:56 PM58 °FPartly sunny.10 mph90%29.88 "Hg10 mi
7:56 PM60 °FBroken clouds.13 mph86%29.86 "Hg10 mi
6:56 PM63 °FBroken clouds.13 mph78%29.85 "Hg10 mi
5:56 PM65 °FPartly sunny.10 mph66%29.86 "Hg10 mi
4:56 PM64 °FPartly sunny.10 mph70%29.87 "Hg10 mi
3:56 PM63 °FPartly sunny.13 mph73%29.87 "Hg10 mi
2:56 PM64 °FPartly sunny.15 mph70%29.87 "Hg10 mi
1:56 PM65 °FBroken clouds.13 mph68%29.86 "Hg10 mi
12:56 PM63 °FBroken clouds.14 mph73%29.86 "Hg10 mi
11:56 AM63 °FBroken clouds.10 mph73%29.86 "Hg10 mi
10:56 AM62 °FBroken clouds.9 mph75%29.86 "Hg10 mi
Weather by CustomWeather, © 2016

See weather overviewHow to use our weather pages